STARLINK-1085 (44963 NORAD) Tracking and Keplerian Element Data

This shows tracking and keplerian element data for the satellite.

Feedback or suggestion? Click here.




ElementValue
Catalog44963
NameSTARLINK-1085
Epoch Orbit728
Epoch Day48.58334491
Epoch Year2020
RAAN190.4089
Inclination52.9955
Eccentricity0.000147
Argument of Perigee23.034
Mean Anonmoly301.5668
Mean Motion15.7321544
Decay Rate0.00100982
L11 44963U 20001BB 20048.58334491 .00100982 00000-0 71466-3 0 9997
L22 44963 52.9955 190.4089 0001470 23.0340 301.5668 15.73215440 7286

Live tracking and technical data element details for STARLINK-1085 (NORAD 44963). STARLINK-1085 can be tracked NOW for your location showing map with azimuth and elevation plus other details from your city location.

Track the satellite on the map from your city or location and see movement details for azimuth, elevation, latitude, longitude, range, height, and movement on the map or in text.







IsCatalogInMostPopularTable: catalog: 44963, numindb: 10
Update: records affected: 1



GetName: 44963 STARLINK-1085

Hit Count: updated at: Tue, 18 Feb 2020 00:21:15 GMT